• Join FlightAware (Why Join?)
  • Login
  • US Flag 
11:16PM EDT


 

Airport Tracker/Info


-or-


 

Live Flight TrackerFlight Track Log ✈ EJA948 ✈ 12-May-2013 ✈ KSFO - KLAX

Flight Track Log - Related Links

Times and Time Zones

All times are in EDT time to prevent confusion due to time zone crossing. See the EJA948 flight status page for this flight to view local times or setup timezone preferences in your user account.

Time Position Orientation Groundspeed Altitude Reporting Facility
EDT Latitude Longitude Course Direction KTS MPH feet Rate Location/Type
08:00PM 37.6333 -122.4000 292° West 173 199 1,500  Level Northern Cal TRACON
08:02PM 37.6761 -122.5314 292° West 267 307 8,200 3,960 Climbing Oakland Center
08:03PM 37.6175 -122.5828 215° Southwest 282 325 12,600 2,880 Climbing Oakland Center
08:04PM 37.5436 -122.5108 142° Southeast 361 415 14,100 1,740 Climbing Oakland Center
08:05PM 37.4717 -122.4092 132° Southeast 389 448 16,200 1,860 Climbing Oakland Center
08:06PM 37.3992 -122.3108 133° Southeast 386 444 18,000 1,860 Climbing Oakland Center
08:07PM 37.3108 -122.1892 132° Southeast 394 453 20,100 1,860 Climbing Oakland Center
08:08PM 37.2364 -122.0867 132° Southeast 398 458 21,900 1,740 Climbing Oakland Center
08:09PM 37.1603 -121.9800 132° Southeast 407 468 23,700 1,680 Climbing Oakland Center
08:10PM 37.0797 -121.8728 133° Southeast 420 483 25,400 1,320 Climbing Oakland Center
08:11PM 36.9944 -121.7631 134° Southeast 445 512 26,400 780 Climbing Oakland Center
08:12PM 36.9069 -121.6453 133° Southeast 460 529 27,000 240 Climbing Oakland Center
08:13PM 36.8047 -121.5058 132° Southeast 479 551 27,000  Level Oakland Center
08:14PM 36.7094 -121.3825 134° Southeast 492 566 27,000  Level Oakland Center
08:15PM 36.6156 -121.2539 132° Southeast 500 575 27,000  Level Oakland Center
08:16PM 36.5225 -121.1278 133° Southeast 496 571 27,000  Level Oakland Center
08:17PM 36.4317 -121.0058 133° Southeast 487 560 27,000  Level Oakland Center
08:18PM 36.3428 -120.8881 133° Southeast 469 540 27,000  Level Oakland Center
08:19PM 36.2547 -120.7717 133° Southeast 464 534 27,000  Level Oakland Center
08:20PM 36.1675 -120.6561 133° Southeast 460 529 27,000  Level Oakland Center
08:21PM 36.0789 -120.5419 134° Southeast 460 529 27,000  Level Oakland Center
08:22PM 35.9922 -120.4269 133° Southeast 449 517 27,000  Level Oakland Center
08:23PM 35.9033 -120.3133 134° Southeast 454 522 27,000  Level Oakland Center
08:24PM 35.7978 -120.1756 133° Southeast 458 527 27,000  Level Oakland Center
08:25PM 35.7092 -120.0600 133° Southeast 459 528 27,000  Level Oakland Center
08:26PM 35.6158 -119.9511 137° Southeast 458 527 27,000  Level Oakland Center
08:27PM 35.5089 -119.8606 145° Southeast 460 529 27,000  Level Oakland Center
08:28PM 35.4031 -119.7686 145° Southeast 462 532 27,000  Level Oakland Center
08:29PM 35.2981 -119.6778 145° Southeast 460 529 27,000  Level Oakland Center
08:29PM 35.2764 -119.6589 145° Southeast 460 529 27,000  Level Los Angeles Center
08:30PM 35.1719 -119.5694 145° Southeast 459 528 27,000  Level Los Angeles Center
08:31PM 35.0450 -119.4608 145° Southeast 462 532 27,000  Level Los Angeles Center
08:33PM 34.9208 -119.3536 145° Southeast 457 526 27,000 -300 Level Los Angeles Center
08:34PM 34.8144 -119.2639 145° Southeast 462 532 26,400 -1,500 Descending Los Angeles Center
08:35PM 34.7044 -119.1708 145° Southeast 477 549 23,900 -2,580 Descending Los Angeles Center
08:36PM 34.5819 -119.0700 146° Southeast 482 555 21,100 -2,520 Descending Los Angeles Center
08:37PM 34.4817 -118.9853 145° Southeast 436 502 18,800 -2,160 Descending Los Angeles Center
08:38PM 34.3942 -118.9131 146° Southeast 377 434 16,700 -1,920 Descending Los Angeles Center
08:39PM 34.2872 -118.8553 156° South 356 410 14,500 -1,860 Descending Los Angeles Center
08:40PM 34.1933 -118.8211 163° South 352 405 12,600 -1,800 Descending Los Angeles Center
08:41PM 34.0897 -118.7839 163° South 320 368 10,900 -1,260 Descending Los Angeles Center
08:42PM 34.0356 -118.7153 134° Southeast 290 334 10,000 -480 Descending Los Angeles Center
08:43PM 34.0253 -118.6106 97° East 295 339 10,000 -720 Level Los Angeles Center
08:44PM 34.0164 -118.5139 96° East 292 336 8,600 -1,500 Descending Los Angeles Center
08:45PM 34.0103 -118.4275 95° East 282 325 7,000 -1,440 Descending Los Angeles Center
08:46PM 34.0206 -118.3389 82° East 271 312 5,700 -1,200 Descending Los Angeles Center
08:47PM 34.0261 -118.2592 85° East 247 284 4,600 -900 Descending Los Angeles Center
08:48PM 34.0236 -118.1739 92° East 225 259 3,900 -720 Descending Los Angeles Center
08:49PM 33.9847 -118.1986 208° Southwest 189 217 3,200 -540 Descending Los Angeles Center
08:50PM 33.9706 -118.2536 253° West 175 201 2,800 -780 Descending Los Angeles Center
08:51PM 33.9617 -118.3125 260° West 178 205 1,600 -900 Descending Los Angeles Center
08:53PM 33.9581 -118.3567 264° West 150 173 1,000 -660 Descending Los Angeles Center
08:54PM 33.9528 -118.3983 261° West 133 153 300 -720 Descending Los Angeles Center
08:56PM 33.9333 -118.4000 228° Southwest  Level FlightAware Approximate